Project,Study,Ord_Occ,Event_Num,Cast_ID,Date_Time_UTC,Date_Time_PST,Lat_Dec,Lon_Dec,Sta_ID,Line,Sta,Depth,Pressure,PrQ,Temp1,Temp1Q,Temp2,Temp2Q,TempAve,Salt1,Salt1Q,Salt1_Corr,Salt2,Salt2Q,Salt2_Corr,SaltAve_Corr,Ox1,Ox1Q,Ox1_CruiseCorr,Ox1_StaCorr,Ox2,Ox2Q,Ox2_CruiseCorr,Ox2_StaCorr,OxAve_StaCorr,Ox1uM,Ox1uM_CruiseCorr,Ox1uM_StaCorr,Ox2uM,Ox2uM_CruiseCorr,Ox2uM_StaCorr,OxAveuM_StaCorr,FluorV,FluorQ,EstChl_CruiseCorr,EstChl_StaCorr,ISUSV,ISUSQ,EstNO3_CruiseCorr,EstNO3_StaCorr,SigThetaTS1,SigThetaTS1Q,SigThetaTS2,SigThetaTS2Q,BAT,XMiss,TransQ,pH,pHQ,SPAR,SPARQ,PAR,PARQ,PoT1,PoT2,DynHt,SVA,OxSat1,OxSat2,BTL_Depth,BTL_Temp,SaltB,OxB,OxBuM,Chl-a,Phaeo,NO3,NO2,NH4,PO4,SIL
CalCOFI,2105SH,040,,2105_040d,13-May-2021 04:06:31,12-May-2021 20:06:31,34.27573,-120.02846,081.8 046.9,081.8,046.9,3.000,3.022,,13.5749,,13.5810,,13.5780,33.9788,,33.9800,33.9804,,33.9823,33.9812,6.7839,,7.1607,6.5085,6.8593,,7.1643,6.5111,6.5098,295.439,311.3507,292.4338,298.724,324.2034,292.5930,292.5134,0.6977,,3.9468,3.7977,2.9657,,9.0067,,25.4858,,25.4858,,,,,,,,,,,13.5745,13.5805,0.0018,248.644,115.073,116.367,3,13.315,33.9775,6.508,283.41,3.903,0.644,7.64,0.253,0.30,1.01,16.32
CalCOFI,2105SH,040,,2105_040d,13-May-2021 04:06:46,12-May-2021 20:06:46,34.27572,-120.02848,081.8 046.9,081.8,046.9,4.000,4.029,,13.4992,,13.4888,,13.4940,33.9823,,33.9835,33.9744,,33.9763,33.9799,6.7395,,7.1143,6.4673,6.7756,,7.0776,6.4342,6.4508,293.499,309.3227,290.5382,295.075,322.1082,289.0615,289.7999,0.9009,,4.7233,4.9846,2.9618,,9.0067,,25.5040,,25.5000,,,,,,,,,,,13.4987,13.4882,0.0056,246.939,114.145,114.727,,,,,,,,,,,,
CalCOFI,2105SH,040,,2105_040d,13-May-2021 04:06:49,12-May-2021 20:06:49,34.27572,-120.02850,081.8 046.9,081.8,046.9,5.000,5.036,,13.4081,,13.4066,,13.4074,33.9775,,33.9787,33.9751,,33.9770,33.9779,6.6253,,6.9948,6.3611,6.6121,,6.9082,6.2840,6.3226,288.524,304.1218,285.6771,287.947,316.7352,282.1631,283.9201,0.8754,,4.6367,4.8356,2.9395,,9.0067,,25.5189,,25.5173,,,,,,,,,,,13.4074,13.4059,0.0081,245.552,111.999,111.770,,,,,,,,,,,,
CalCOFI,2105SH,040,,2105_040d,13-May-2021 04:06:51,12-May-2021 20:06:51,34.27572,-120.02850,081.8 046.9,081.8,046.9,6.000,6.043,,13.3831,,13.3763,,13.3797,33.9775,,33.9787,33.9724,,33.9743,33.9765,6.2925,,6.6468,6.0519,6.2615,,6.5451,5.9619,6.0069,274.028,288.9677,271.5130,272.679,301.0795,267.3867,269.4499,0.8345,,4.4914,4.5967,2.9112,,9.0067,,25.5240,,25.5214,,,,,,,,,,,13.3823,13.3755,0.0106,245.094,106.319,105.777,,,,,,,,,,,,
CalCOFI,2105SH,040,,2105_040d,13-May-2021 04:06:52,12-May-2021 20:06:52,34.27572,-120.02850,081.8 046.9,081.8,046.9,7.000,7.051,,13.0458,,13.0290,,13.0374,33.9807,,33.9819,33.9642,,33.9661,33.9740,6.0792,,6.4237,5.8536,6.1167,,6.3951,5.8289,5.8413,264.722,279.2392,262.4200,266.356,291.0290,261.2673,261.8437,0.7664,,4.2315,4.1990,2.8758,,9.0067,,25.5942,,25.5847,,,,,,,,,,,13.0448,13.0281,0.0130,238.447,102.011,102.593,,,,,,,,,,,,
CalCOFI,2105SH,040,,2105_040d,13-May-2021 04:06:55,12-May-2021 20:06:55,34.27572,-120.02850,081.8 046.9,081.8,046.9,8.000,8.058,,12.7323,,12.7229,,12.7276,33.9785,,33.9797,33.9670,,33.9689,33.9743,5.8994,,6.2357,5.6866,5.9455,,6.2177,5.6716,5.6791,256.877,271.0380,254.7546,258.885,282.5564,254.0369,254.3958,0.5501,,3.2587,2.9355,2.8126,,9.0067,,25.6547,,25.6476,,,,,,,,,,,12.7312,12.7219,0.0154,232.713,98.350,99.092,,,,,,,,,,,,
CalCOFI,2105SH,040,,2105_040d,13-May-2021 04:06:56,12-May-2021 20:06:56,34.27572,-120.02850,081.8 046.9,081.8,046.9,9.000,9.065,,12.6186,,12.6146,,12.6166,33.9797,,33.9809,33.9695,,33.9714,33.9762,5.7891,,6.1203,5.5840,5.8512,,6.1201,5.5850,5.5845,252.070,266.0128,250.0576,254.773,277.3648,250.0573,250.0575,0.5201,,3.1060,2.7603,2.7648,,9.0067,,25.6779,,25.6708,,,,,,,,,,,12.6174,12.6134,0.0177,230.534,96.286,97.303,,,,,,,,,,,,
CalCOFI,2105SH,040,,2105_040d,13-May-2021 04:06:58,12-May-2021 20:06:58,34.27570,-120.02851,081.8 046.9,081.8,046.9,10.000,10.072,,12.5133,,12.5095,,12.5114,33.9810,,33.9822,33.9723,,33.9742,33.9782,5.7160,,6.0439,5.5161,5.7812,,6.0476,5.5207,5.5184,248.881,262.6790,246.9417,251.719,273.9207,247.1017,247.0217,0.4631,,2.8041,2.4273,2.7176,,9.0067,,25.6995,,25.6935,,,,,,,,,,,12.5120,12.5082,0.0200,228.512,94.863,95.932,,,,,,,,,,,,
CalCOFI,2105SH,040,,2105_040d,13-May-2021 04:07:00,12-May-2021 20:07:00,34.27571,-120.02851,081.8 046.9,081.8,046.9,11.000,11.080,,12.4292,,12.4273,,12.4283,33.9811,,33.9823,33.9731,,33.9750,33.9787,5.6496,,5.9745,5.4544,5.7022,,5.9657,5.4481,5.4513,245.986,259.6526,244.1129,248.277,270.7941,243.7705,243.9417,0.3872,,2.3779,1.9840,2.6579,,9.0067,,25.7159,,25.7100,,,,,,,,,,,12.4278,12.4259,0.0223,226.973,93.597,94.460,11,12.495,,,260.42,2.486,0.822,11.47,0.243,0.53,1.21,18.09
CalCOFI,2105SH,040,,2105_040d,13-May-2021 04:07:02,12-May-2021 20:07:02,34.27570,-120.02852,081.8 046.9,081.8,046.9,12.000,12.087,,12.3832,,12.3803,,12.3818,33.9787,,33.9799,33.9731,,33.9750,33.9775,5.5970,,5.9194,5.4055,5.7000,,5.9635,5.4461,5.4258,243.696,257.2586,241.8754,248.177,268.3209,243.6737,242.7746,0.3672,,2.2610,1.8671,2.6227,,9.0067,,25.7229,,25.7191,,,,,,,,,,,12.3816,12.3787,0.0246,226.332,92.636,94.330,,,,,,,,,,,,
CalCOFI,2105SH,040,,2105_040d,13-May-2021 04:07:03,12-May-2021 20:07:03,34.27571,-120.02852,081.8 046.9,081.8,046.9,13.000,13.094,,12.3665,,12.3662,,12.3664,33.9777,,33.9789,33.9729,,33.9748,33.9769,5.5933,,5.9156,5.4021,5.6880,,5.9510,5.4351,5.4186,243.531,257.0861,241.7141,247.656,268.1427,243.1695,242.4418,0.3718,,2.2881,1.8940,2.5919,,9.0067,,25.7254,,25.7218,,,,,,,,,,,12.3647,12.3644,0.0269,226.120,92.541,94.104,,,,,,,,,,,,
CalCOFI,2105SH,040,,2105_040d,13-May-2021 04:07:05,12-May-2021 20:07:05,34.27570,-120.02852,081.8 046.9,081.8,046.9,14.000,14.101,,12.3590,,12.3604,,12.3597,33.9775,,33.9787,33.9739,,33.9758,33.9773,5.5930,,5.9153,5.4018,5.6611,,5.9232,5.4103,5.4061,243.519,257.0736,241.7024,246.483,268.1297,242.0343,241.8684,0.3660,,2.2539,1.8601,2.5594,,9.0067,,25.7267,,25.7236,,,,,,,,,,,12.3571,12.3586,0.0292,226.022,92.522,93.648,,,,,,,,,,,,
CalCOFI,2105SH,040,,2105_040d,13-May-2021 04:07:07,12-May-2021 20:07:07,34.27570,-120.02852,081.8 046.9,081.8,046.9,15.000,15.109,,12.3407,,12.3405,,12.3406,33.9795,,33.9807,33.9757,,33.9776,33.9792,5.5729,,5.8942,5.3831,5.6439,,5.9054,5.3945,5.3888,242.643,256.1578,240.8465,245.733,267.1836,241.3084,241.0775,0.3505,,2.1619,1.7696,2.5312,,9.0067,,25.7318,,25.7289,,,,,,,,,,,12.3388,12.3386,0.0315,225.570,92.155,93.326,,,,,,,,,,,,
CalCOFI,2105SH,040,,2105_040d,13-May-2021 04:07:08,12-May-2021 20:07:08,34.27570,-120.02852,081.8 046.9,081.8,046.9,16.000,16.116,,12.3241,,12.3273,,12.3257,33.9813,,33.9825,33.9779,,33.9798,33.9812,5.5280,,5.8473,5.3414,5.6080,,5.8682,5.3616,5.3515,240.686,254.1119,238.9343,244.168,265.0700,239.7938,239.3641,0.3497,,2.1571,1.7649,2.5094,,9.0067,,25.7365,,25.7332,,,,,,,,,,,12.3219,12.3252,0.0337,225.151,91.382,92.708,,,,,,,,,,,,
CalCOFI,2105SH,040,,2105_040d,13-May-2021 04:07:10,12-May-2021 20:07:10,34.27570,-120.02852,081.8 046.9,081.8,046.9,17.000,17.123,,12.2990,,12.2984,,12.2987,33.9826,,33.9838,33.9793,,33.9812,33.9825,5.5143,,5.8330,5.3287,5.5789,,5.8380,5.3348,5.3318,240.087,253.4857,238.3490,242.900,264.4231,238.5667,238.4579,0.3455,,2.1320,1.7404,2.4923,,9.0067,,25.7423,,25.7398,,,,,,,,,,,12.2968,12.2962,0.0360,224.623,91.108,92.172,,,,,,,,,,,,
CalCOFI,2105SH,040,,2105_040d,13-May-2021 04:07:12,12-May-2021 20:07:12,34.27570,-120.02852,081.8 046.9,081.8,046.9,18.000,18.131,,12.2779,,12.2797,,12.2788,33.9833,,33.9845,33.9802,,33.9821,33.9833,5.4565,,5.7725,5.2750,5.4943,,5.7504,5.2571,5.2661,237.571,250.8555,235.8906,239.219,261.7058,235.0042,235.4474,0.3252,,2.0093,1.6218,2.4734,,9.0067,,25.7469,,25.7441,,,,,,,,,,,12.2756,12.2773,0.0383,224.209,90.115,90.741,,,,,,,,,,,,
CalCOFI,2105SH,040,,2105_040d,13-May-2021 04:07:14,12-May-2021 20:07:14,34.27570,-120.02852,081.8 046.9,081.8,046.9,19.000,19.138,,12.2394,,12.2407,,12.2401,33.9837,,33.9849,33.9793,,33.9812,33.9831,5.2946,,5.6032,5.1245,5.3211,,5.5710,5.0980,5.1113,230.521,243.4855,229.0020,231.677,254.0918,227.7051,228.3536,0.3263,,2.0160,1.6282,2.4511,,9.0067,,25.7546,,25.7509,,,,,,,,,,,12.2369,12.2383,0.0405,223.498,87.371,87.809,,,,,,,,,,,,
CalCOFI,2105SH,040,,2105_040d,13-May-2021 04:07:15,12-May-2021 20:07:15,34.27570,-120.02853,081.8 046.9,081.8,046.9,20.000,20.145,,12.1003,,12.1003,,12.1003,33.9906,,33.9918,33.9797,,33.9816,33.9867,5.1527,,5.4548,4.9926,5.2219,,5.4682,5.0069,4.9998,224.337,237.0207,222.9595,227.349,247.4131,223.5164,223.2380,0.3110,,1.9222,1.5389,2.4315,,9.0067,,25.7866,,25.7781,,,,,,,,,,,12.0977,12.0977,0.0427,220.485,84.787,85.919,,,,,,,,,,,,
CalCOFI,2105SH,040,,2105_040d,13-May-2021 04:07:17,12-May-2021 20:07:17,34.27570,-120.02854,081.8 046.9,081.8,046.9,21.000,21.152,,11.9900,,11.9926,,11.9913,33.9929,,33.9941,33.9849,,33.9868,33.9905,5.0458,,5.3430,4.8933,5.1187,,5.3613,4.9120,4.9027,219.675,232.1470,218.4043,222.851,242.3781,219.1633,218.7838,0.2941,,1.8174,1.4401,2.4073,,9.0067,,25.8093,,25.8026,,,,,,,,,,,11.9873,11.9899,0.0450,218.347,82.836,84.033,,,,,,,,,,,,
CalCOFI,2105SH,040,,2105_040d,13-May-2021 04:07:19,12-May-2021 20:07:19,34.27570,-120.02854,081.8 046.9,081.8,046.9,22.000,22.160,,11.8522,,11.8547,,11.8535,33.9965,,33.9977,33.9894,,33.9913,33.9945,4.9824,,5.2767,4.8344,5.0467,,5.2868,4.8459,4.8402,216.910,229.2565,215.7026,219.709,239.3919,216.1225,215.9126,0.2738,,1.6897,1.3216,2.3751,,9.0067,,25.8381,,25.8321,,,,,,,,,,,11.8494,11.8519,0.0471,215.629,81.561,82.614,,,,,,,,,,,,
CalCOFI,2105SH,040,,2105_040d,13-May-2021 04:07:20,12-May-2021 20:07:20,34.27570,-120.02854,081.8 046.9,081.8,046.9,23.000,23.167,,11.8087,,11.8077,,11.8082,33.9962,,33.9974,33.9909,,33.9928,33.9951,4.9111,,5.2021,4.7681,4.9698,,5.2071,4.7752,4.7717,213.804,226.0095,212.6677,216.359,236.0374,212.8803,212.7740,0.3124,,1.9309,1.5470,2.3454,,9.0067,,25.8461,,25.8421,,,,,,,,,,,11.8058,11.8047,0.0493,214.899,80.320,81.275,,,,,,,,,,,,
CalCOFI,2105SH,040,,2105_040d,13-May-2021 04:07:22,12-May-2021 20:07:22,34.27570,-120.02856,081.8 046.9,081.8,046.9,24.000,24.174,,11.7168,,11.7213,,11.7191,33.9976,,33.9988,33.9905,,33.9924,33.9956,4.8390,,5.1267,4.7011,4.8872,,5.1216,4.6994,4.7003,210.661,222.7238,209.5966,212.759,232.6430,209.3963,209.4965,0.2700,,1.6655,1.2994,2.3094,,9.0067,,25.8643,,25.8580,,,,,,,,,,,11.7138,11.7183,0.0515,213.184,78.989,79.779,,,,,,,,,,,,
CalCOFI,2105SH,040,,2105_040d,13-May-2021 04:07:25,12-May-2021 20:07:25,34.27570,-120.02856,081.8 046.9,081.8,046.9,25.000,25.182,,11.6153,,11.6113,,11.6133,33.9951,,33.9963,33.9879,,33.9898,33.9931,4.6964,,4.9776,4.5686,4.7345,,4.9634,4.5591,4.5639,204.450,216.2308,203.5278,206.109,225.9351,202.9604,203.2441,0.2488,,1.5296,1.1755,2.2582,,9.0067,,25.8813,,25.8765,,,,,,,,,,,11.6122,11.6081,0.0536,211.597,76.496,77.106,,,,,,,,,,,,
CalCOFI,2105SH,040,,2105_040d,13-May-2021 04:07:26,12-May-2021 20:07:26,34.27570,-120.02856,081.8 046.9,081.8,046.9,26.000,26.189,,11.5225,,11.5218,,11.5222,33.9969,,33.9981,33.9887,,33.9906,33.9944,4.5520,,4.8266,4.4344,4.5928,,4.8166,4.4289,4.4317,198.159,209.6542,197.3808,199.939,219.1408,196.9891,197.1850,0.2701,,1.6662,1.3000,2.2229,,9.0067,,25.8999,,25.8936,,,,,,,,,,,11.5192,11.5185,0.0557,209.845,73.999,74.658,,,,,,,,,,,,
CalCOFI,2105SH,040,,2105_040d,13-May-2021 04:07:28,12-May-2021 20:07:28,34.27568,-120.02856,081.8 046.9,081.8,046.9,27.000,27.196,,11.3478,,11.3477,,11.3478,33.9997,,34.0009,33.9893,,33.9912,33.9961,4.4925,,4.7644,4.3791,4.5757,,4.7989,4.4132,4.3962,195.564,206.9414,194.8452,199.188,216.3382,196.2623,195.5538,0.2908,,1.7968,1.4209,2.1891,,9.0067,,25.9341,,25.9261,,,,,,,,,,,11.3445,11.3443,0.0578,206.611,72.764,74.106,,,,,,,,,,,,
CalCOFI,2105SH,040,,2105_040d,13-May-2021 04:07:30,12-May-2021 20:07:30,34.27568,-120.02857,081.8 046.9,081.8,046.9,28.000,28.204,,11.2983,,11.2986,,11.2985,33.9993,,34.0005,33.9945,,33.9964,33.9985,4.4892,,4.7609,4.3760,4.5727,,4.7958,4.4104,4.3932,195.416,206.7867,194.7006,199.052,216.1783,196.1306,195.4156,0.2680,,1.6528,1.2877,2.1574,,9.0067,,25.9429,,25.9392,,,,,,,,,,,11.2948,11.2951,0.0599,205.801,72.633,73.982,,,,,,,,,,,,
CalCOFI,2105SH,040,,2105_040d,13-May-2021 04:07:32,12-May-2021 20:07:32,34.27568,-120.02858,081.8 046.9,081.8,046.9,29.000,29.211,,11.2979,,11.2981,,11.2980,33.9991,,34.0003,33.9954,,33.9973,33.9988,4.4617,,4.7321,4.3505,4.5510,,4.7733,4.3905,4.3705,194.220,205.5364,193.5320,198.109,214.8866,195.2180,194.3750,0.2537,,1.5612,1.2042,2.1323,,9.0067,,25.9429,,25.9400,,,,,,,,,,,11.2943,11.2945,0.0620,205.826,72.187,73.631,,,,,,,,,,,,
CalCOFI,2105SH,040,,2105_040d,13-May-2021 04:07:33,12-May-2021 20:07:33,34.27568,-120.02858,081.8 046.9,081.8,046.9,30.000,30.219,,11.2887,,11.2875,,11.2881,34.0023,,34.0035,33.9989,,34.0008,34.0022,4.4611,,4.7315,4.3499,4.5143,,4.7353,4.3568,4.3534,194.192,205.5071,193.5047,196.510,214.8564,193.6705,193.5876,0.2703,,1.6674,1.3011,2.1078,,9.0067,,25.9470,,25.9446,,,,,,,,,,,11.2850,11.2837,0.0640,205.457,72.165,73.023,,,,,,,,,,,,
CalCOFI,2105SH,040,,2105_040d,13-May-2021 04:07:36,12-May-2021 20:07:36,34.27568,-120.02858,081.8 046.9,081.8,046.9,31.000,31.226,,11.2410,,11.2399,,11.2405,34.0130,,34.0142,34.0097,,34.0116,34.0129,4.4119,,4.6801,4.3042,4.4597,,4.6788,4.3066,4.3054,192.048,203.2658,191.4097,194.131,212.5409,191.3681,191.3889,0.2935,,1.8137,1.4366,2.0781,,9.0067,,25.9641,,25.9617,,,,,,,,,,,11.2372,11.2361,0.0661,203.859,71.302,72.072,31,11.041,,,195.22,0.557,0.721,16.41,0.268,0.62,1.59,22.17
CalCOFI,2105SH,040,,2105_040d,13-May-2021 04:07:38,12-May-2021 20:07:38,34.27568,-120.02858,081.8 046.9,081.8,046.9,32.000,32.233,,11.1956,,11.1944,,11.1950,34.0212,,34.0224,34.0172,,34.0191,34.0208,4.3627,,4.6286,4.2585,4.4051,,4.6222,4.2565,4.2575,189.905,201.0255,189.3158,191.751,210.2264,189.0647,189.1903,0.2525,,1.5535,1.1972,2.0554,,9.0067,,25.9788,,25.9758,,,,,,,,,,,11.1916,11.1905,0.0682,202.487,70.443,71.124,,,,,,,,,,,,
CalCOFI,2105SH,040,,2105_040d,13-May-2021 04:07:39,12-May-2021 20:07:39,34.27568,-120.02858,081.8 046.9,081.8,046.9,33.000,33.241,,11.1544,,11.1539,,11.1542,34.0270,,34.0282,34.0237,,34.0256,34.0269,4.3260,,4.5902,4.2244,4.3614,,4.5769,4.2163,4.2204,188.305,199.3528,187.7524,189.848,208.4984,187.2230,187.4877,0.2536,,1.5606,1.2036,2.0411,,9.0067,,25.9907,,25.9882,,,,,,,,,,,11.1503,11.1498,0.0702,201.372,69.791,70.361,,,,,,,,,,,,
CalCOFI,2105SH,040,,2105_040d,13-May-2021 04:07:41,12-May-2021 20:07:41,34.27568,-120.02858,081.8 046.9,081.8,046.9,34.000,34.248,,11.1270,,11.1260,,11.1265,34.0283,,34.0295,34.0245,,34.0264,34.0280,4.2439,,4.5044,4.1481,4.2963,,4.5095,4.1565,4.1523,184.732,195.6176,184.2612,187.011,204.6396,184.4774,184.3693,0.2457,,1.5096,1.1574,2.0260,,9.0067,,25.9967,,25.9939,,,,,,,,,,,11.1228,11.1219,0.0722,200.830,68.428,69.269,,,,,,,,,,,,
CalCOFI,2105SH,040,,2105_040d,13-May-2021 04:07:43,12-May-2021 20:07:43,34.27568,-120.02858,081.8 046.9,081.8,046.9,35.000,35.255,,11.0611,,11.0590,,11.0601,34.0371,,34.0383,34.0324,,34.0343,34.0363,4.2004,,4.4589,4.1076,4.2491,,4.4606,4.1131,4.1104,182.831,193.6303,182.4037,184.955,202.5865,182.4876,182.4457,0.2602,,1.6030,1.2421,2.0086,,9.0067,,26.0155,,26.0121,,,,,,,,,,,11.0568,11.0547,0.0742,199.064,67.634,68.414,,,,,,,,,,,,
CalCOFI,2105SH,040,,2105_040d,13-May-2021 04:07:45,12-May-2021 20:07:45,34.27568,-120.02860,081.8 046.9,081.8,046.9,36.000,36.263,,11.0021,,11.0005,,11.0013,34.0452,,34.0464,34.0414,,34.0433,34.0449,4.1569,,4.4134,4.0672,4.1933,,4.4028,4.0619,4.0646,180.939,191.6524,180.5551,182.522,200.5431,180.1329,180.3440,0.2266,,1.3850,1.0459,1.9873,,9.0067,,26.0324,,26.0298,,,,,,,,,,,10.9977,10.9961,0.0762,197.482,66.855,67.435,,,,,,,,,,,,
CalCOFI,2105SH,040,,2105_040d,13-May-2021 04:07:47,12-May-2021 20:07:47,34.27568,-120.02860,081.8 046.9,081.8,046.9,37.000,37.270,,10.9497,,10.9467,,10.9482,34.0502,,34.0514,34.0459,,34.0478,34.0496,3.9873,,4.2360,3.9096,3.9757,,4.1774,3.8620,3.8858,173.552,183.9301,173.3372,173.049,192.5651,170.9650,172.1511,0.2033,,1.2307,0.9098,1.9547,,9.0067,,26.0457,,26.0429,,,,,,,,,,,10.9452,10.9422,0.0782,196.238,64.057,63.865,,,,,,,,,,,,
CalCOFI,2105SH,040,,2105_040d,13-May-2021 04:07:49,12-May-2021 20:07:49,34.27568,-120.02860,081.8 046.9,081.8,046.9,38.000,38.278,,10.8379,,10.8365,,10.8372,34.0556,,34.0568,34.0458,,34.0477,34.0523,3.7434,,3.9809,3.6829,3.7784,,3.9731,3.6807,3.6818,162.933,172.8290,162.9613,164.457,181.0966,162.6497,162.8055,0.2229,,1.3607,1.0243,1.9262,,9.0067,,26.0698,,26.0624,,,,,,,,,,,10.8333,10.8320,0.0802,193.964,59.997,60.552,,,,,,,,,,,,
CalCOFI,2105SH,040,,2105_040d,13-May-2021 04:07:51,12-May-2021 20:07:51,34.27568,-120.02860,081.8 046.9,081.8,046.9,39.000,39.285,,10.6688,,10.6662,,10.6675,34.0542,,34.0554,34.0465,,34.0484,34.0519,3.6756,,3.9100,3.6199,3.7581,,3.9520,3.6621,3.6410,159.978,169.7398,160.0739,163.568,177.9052,161.7893,160.9316,0.1753,,1.0418,0.7462,1.9003,,9.0067,,26.0987,,26.0931,,,,,,,,,,,10.6641,10.6616,0.0821,191.230,58.697,60.007,,,,,,,,,,,,
CalCOFI,2105SH,040,,2105_040d,13-May-2021 04:07:53,12-May-2021 20:07:53,34.27568,-120.02860,081.8 046.9,081.8,046.9,40.000,40.292,,10.6365,,10.6366,,10.6366,34.0511,,34.0523,34.0471,,34.0490,34.0507,3.6849,,3.9198,3.6286,3.7523,,3.9460,3.6567,3.6427,160.382,170.1621,160.4687,163.317,178.3415,161.5464,161.0076,0.1632,,0.9590,0.6755,1.8702,,9.0067,,26.1020,,26.0988,,,,,,,,,,,10.6317,10.6318,0.0840,190.939,58.803,59.877,,,,,,,,,,,,
CalCOFI,2105SH,040,,2105_040d,13-May-2021 04:07:54,12-May-2021 20:07:54,34.27568,-120.02860,081.8 046.9,081.8,046.9,41.000,41.300,,10.6331,,10.6337,,10.6334,34.0506,,34.0518,34.0478,,34.0497,34.0508,3.6770,,3.9115,3.6212,3.7461,,3.9396,3.6510,3.6361,160.038,169.8025,160.1326,163.046,177.9700,161.2841,160.7084,0.1606,,0.9412,0.6603,1.8428,,9.0067,,26.1022,,26.0999,,,,,,,,,,,10.6282,10.6288,0.0860,190.942,58.672,59.775,,,,,,,,,,,,
CalCOFI,2105SH,040,,2105_040d,13-May-2021 04:07:56,12-May-2021 20:07:56,34.27568,-120.02860,081.8 046.9,081.8,046.9,42.000,42.307,,10.6314,,10.6316,,10.6315,34.0508,,34.0520,34.0482,,34.0501,34.0511,3.6752,,3.9096,3.6196,3.7348,,3.9279,3.6406,3.6301,159.957,169.7178,160.0534,162.552,177.8825,160.8060,160.4297,0.1812,,1.0819,0.7807,1.8200,,9.0067,,26.1027,,26.1006,,,,,,,,,,,10.6264,10.6266,0.0879,190.918,58.641,59.591,,,,,,,,,,,,
CalCOFI,2105SH,040,,2105_040d,13-May-2021 04:07:58,12-May-2021 20:07:58,34.27568,-120.02860,081.8 046.9,081.8,046.9,43.000,43.315,,10.6284,,10.6286,,10.6285,34.0506,,34.0518,34.0485,,34.0504,34.0511,3.6684,,3.9025,3.6132,3.7175,,3.9100,3.6248,3.6190,159.664,169.4115,159.7671,161.801,177.5661,160.0792,159.9232,0.1582,,0.9246,0.6463,1.7969,,9.0067,,26.1031,,26.1014,,,,,,,,,,,10.6232,10.6234,0.0898,190.903,58.530,59.312,,,,,,,,,,,,
CalCOFI,2105SH,040,,2105_040d,13-May-2021 04:08:01,12-May-2021 20:08:01,34.27568,-120.02861,081.8 046.9,081.8,046.9,44.000,44.322,,10.6145,,10.6146,,10.6146,34.0503,,34.0515,34.0476,,34.0495,34.0505,3.6034,,3.8345,3.5528,3.6513,,3.8414,3.5639,3.5584,156.832,166.4510,157.0000,158.919,174.5075,157.2900,157.1450,0.1599,,0.9363,0.6563,1.7704,,9.0067,,26.1053,,26.1032,,,,,,,,,,,10.6093,10.6094,0.0917,190.717,57.474,58.238,,,,,,,,,,,,
CalCOFI,2105SH,040,,2105_040d,13-May-2021 04:08:02,12-May-2021 20:08:02,34.27568,-120.02862,081.8 046.9,081.8,046.9,45.000,45.329,,10.5855,,10.5854,,10.5855,34.0483,,34.0495,34.0448,,34.0467,34.0481,3.5333,,3.7612,3.4877,3.5890,,3.7769,3.5067,3.4972,153.784,163.2646,154.0217,156.207,171.2157,154.6653,154.3435,0.1533,,0.8908,0.6177,1.7557,,9.0067,,26.1088,,26.1061,,,,,,,,,,,10.5801,10.5801,0.0937,190.402,56.321,57.207,,,,,,,,,,,,
CalCOFI,2105SH,040,,2105_040d,13-May-2021 04:08:04,12-May-2021 20:08:04,34.27568,-120.02862,081.8 046.9,081.8,046.9,46.000,46.337,,10.5537,,10.5533,,10.5535,34.0449,,34.0461,34.0419,,34.0438,34.0450,3.5128,,3.7398,3.4686,3.5727,,3.7600,3.4917,3.4802,152.891,162.3311,153.1492,155.495,170.2512,153.9763,153.5628,0.1455,,0.8367,0.5721,1.7463,,9.0067,,26.1118,,26.1096,,,,,,,,,,,10.5483,10.5478,0.0956,190.145,55.955,56.906,,,,,,,,,,,,
CalCOFI,2105SH,040,,2105_040d,13-May-2021 04:08:06,12-May-2021 20:08:06,34.27568,-120.02862,081.8 046.9,081.8,046.9,47.000,47.344,,10.5325,,10.5334,,10.5330,34.0425,,34.0437,34.0406,,34.0425,34.0431,3.4985,,3.7248,3.4554,3.5619,,3.7488,3.4818,3.4686,152.265,161.6766,152.5375,155.028,169.5751,153.5243,153.0309,0.1359,,0.7697,0.5161,1.7349,,9.0067,,26.1136,,26.1120,,,,,,,,,,,10.5270,10.5278,0.0975,189.989,55.700,56.711,,,,,,,,,,,,
CalCOFI,2105SH,040,,2105_040d,13-May-2021 04:08:08,12-May-2021 20:08:08,34.27568,-120.02862,081.8 046.9,081.8,046.9,48.000,48.352,,10.5323,,10.5319,,10.5321,34.0424,,34.0436,34.0407,,34.0426,34.0431,3.4811,,3.7066,3.4392,3.5225,,3.7080,3.4456,3.4424,151.511,160.8884,151.8008,153.313,168.7608,151.8645,151.8327,0.1372,,0.7788,0.5237,1.7237,,9.0067,,26.1136,,26.1124,,,,,,,,,,,10.5266,10.5262,0.0994,190.012,55.424,56.082,,,,,,,,,,,,
CalCOFI,2105SH,040,,2105_040d,13-May-2021 04:08:09,12-May-2021 20:08:09,34.27568,-120.02863,081.8 046.9,081.8,046.9,49.000,49.359,,10.5142,,10.5140,,10.5141,34.0421,,34.0433,34.0399,,34.0418,34.0426,3.4410,,3.6647,3.4019,3.4927,,3.6771,3.4182,3.4101,149.764,159.0621,150.0938,152.016,166.8740,150.6093,150.3516,0.1344,,0.7592,0.5073,1.7131,,9.0067,,26.1166,,26.1149,,,,,,,,,,,10.5084,10.5082,0.1013,189.754,54.763,55.586,,,,,,,,,,,,
CalCOFI,2105SH,040,,2105_040d,13-May-2021 04:08:12,12-May-2021 20:08:12,34.27568,-120.02864,081.8 046.9,081.8,046.9,50.000,50.367,,10.4856,,10.4830,,10.4843,34.0415,,34.0427,34.0394,,34.0413,34.0420,3.3975,,3.6192,3.3615,3.4342,,3.6165,3.3645,3.3630,147.872,157.0842,148.2451,149.466,164.8307,148.1414,148.1933,0.1274,,0.7100,0.4664,1.6949,,9.0067,,26.1211,,26.1199,,,,,,,,,,,10.4797,10.4771,0.1032,189.340,54.038,54.617,,,,,,,,,,,,
CalCOFI,2105SH,040,,2105_040d,13-May-2021 04:08:14,12-May-2021 20:08:14,34.27567,-120.02864,081.8 046.9,081.8,046.9,51.000,51.374,,10.4604,,10.4605,,10.4605,34.0414,,34.0426,34.0388,,34.0407,34.0417,3.2620,,3.4775,3.2356,3.2751,,3.4517,3.2183,3.2270,141.973,150.9174,142.4811,142.540,158.4597,141.4384,141.9598,0.1261,,0.7008,0.4588,1.6744,,9.0067,,26.1255,,26.1234,,,,,,,,,,,10.4544,10.4544,0.1051,188.951,51.855,52.061,,,,,,,,,,,,
CalCOFI,2105SH,040,,2105_040d,13-May-2021 04:08:16,12-May-2021 20:08:16,34.27566,-120.02866,081.8 046.9,081.8,046.9,52.000,52.382,,10.3904,,10.3879,,10.3892,34.0427,,34.0439,34.0375,,34.0394,34.0417,3.1705,,3.3818,3.1505,3.2189,,3.3935,3.1667,3.1586,137.987,146.7504,138.5864,140.096,154.1548,139.0731,138.8298,0.1166,,0.6336,0.4033,1.6600,,9.0067,,26.1386,,26.1350,,,,,,,,,,,10.3843,10.3818,0.1070,187.719,50.324,51.088,52,9.922,,,117.33,0.152,0.290,23.28,0.307,0.24,1.97,27.84
CalCOFI,2105SH,040,,2105_040d,13-May-2021 04:08:17,12-May-2021 20:08:17,34.27566,-120.02866,081.8 046.9,081.8,046.9,53.000,53.389,,10.3505,,10.3508,,10.3507,34.0405,,34.0417,34.0378,,34.0397,34.0407,3.1443,,3.3544,3.1262,3.1962,,3.3700,3.1458,3.1360,136.846,145.5576,137.4715,139.106,152.9226,138.1150,137.7933,0.1174,,0.6393,0.4080,1.6430,,9.0067,,26.1439,,26.1416,,,,,,,,,,,10.3443,10.3446,0.1089,187.239,49.864,50.687,,,,,,,,,,,,
CalCOFI,2105SH,040,,2105_040d,13-May-2021 04:08:19,12-May-2021 20:08:19,34.27566,-120.02866,081.8 046.9,081.8,046.9,54.000,54.397,,10.3351,,10.3353,,10.3352,34.0398,,34.0410,34.0380,,34.0399,34.0405,3.1127,,3.3214,3.0968,3.1381,,3.3098,3.0925,3.0947,135.471,144.1202,136.1280,136.576,151.4376,135.6665,135.8973,0.1101,,0.5874,0.3654,1.6187,,9.0067,,26.1460,,26.1445,,,,,,,,,,,10.3288,10.3289,0.1108,187.058,49.347,49.749,,,,,,,,,,,,
CalCOFI,2105SH,040,,2105_040d,13-May-2021 04:08:21,12-May-2021 20:08:21,34.27568,-120.02866,081.8 046.9,081.8,046.9,55.000,55.404,,10.3200,,10.3206,,10.3203,34.0407,,34.0419,34.0378,,34.0397,34.0408,2.9888,,3.1918,2.9817,2.9749,,3.1408,2.9425,2.9621,130.079,138.4834,130.8594,129.475,145.6142,128.7942,129.8268,0.1025,,0.5331,0.3210,1.5932,,9.0067,,26.1493,,26.1469,,,,,,,,,,,10.3135,10.3141,0.1127,186.767,47.368,47.147,,,,,,,,,,,,